STARLINK-35753 (66232 NORAD) Tracking and Keplerian Element Data

This shows tracking and keplerian element data for the satellite.

Feedback or suggestion? Click here.




ElementValue
Catalog66232
NameSTARLINK-35753
Epoch Orbit592
Epoch Day354.25003472
Epoch Year2025
RAAN240.1234
Inclination53.159
Eccentricity0.0001265
Argument of Perigee90.0422
Mean Anonmoly126.4028
Mean Motion15.39628143
Decay Rate7.219E-05
L11 66232U 25244AC 25354.25003472 .00007219 00000+0 19023-3 0 9994
L22 66232 53.1590 240.1234 0001265 90.0422 126.4028 15.39628143 5922



Live tracking and technical data element details for STARLINK-35753 (NORAD 66232). STARLINK-35753 can be tracked NOW for your location showing map with azimuth and elevation plus other details from your city location.







IsCatalogInMostPopularTable: catalog: 66232, numindb: 17
Update: records affected: 1



GetName: 66232 STARLINK-35753

Hit Count: updated at: Thu, 21 May 2026 11:56:09 GMT